AirNav   Air Wisconsin pilot careers
 
 1096 users online  

KNXF MCOLF Camp Pendleton (Red Beach) Airport
Oceanside, California, USA

GOING TO OCEANSIDE?


FAA INFORMATION EFFECTIVE 21 JUNE 2018

Location

FAA Identifier: NXF
Lat/Long: 33-17-08.3180N / 117-27-23.3220W
33-17.138633N / 117-27.388700W
33.2856439 / -117.4564783
(estimated)
Elevation: 89 ft. / 27 m (estimated)
Variation: 13E (2000)
From city: 6 miles N of OCEANSIDE, CA
Time zone: UTC -7 (UTC -8 during Standard Time)
Zip code: 92054

Airport Operations

Airport use: Private use. Permission required prior to landing
Activation date: 03/2009
Control tower: no
ARTCC: LOS ANGELES CENTER
FSS: SAN DIEGO FLIGHT SERVICE STATION
NOTAMs facility: SAN (NOTAM-D service available)
Attendance: UNATNDD
Segmented circle: no

Airport Communications

WX ASOS at OKB (7 nm SE): 127.8 (760-439-9683)
WX AWOS-3P at L18 (11 nm E): 118.425 (760-723-6073)
WX ASOS at CRQ (13 nm SE): PHONE 760-930-0864

Nearby radio navigation aids

VOR radial/distance  VOR name  Freq  Var
OCNr309/3.3OCEANSIDE VORTAC115.3015E
ELBr136/27.2EL TORO VOR/DME117.2014E
MZBr324/32.4MISSION BAY VORTAC117.8015E
HDFr191/(32.4)HOMELAND VOR113.4014E
PDZr159/38.1PARADISE VORTAC112.2015E

Airport Services

Runway Information

Runway 9/27

Dimensions: 1513 x 72 ft. / 461 x 22 m
Surface: concrete
RUNWAY 9  RUNWAY 27
Latitude: 33-17.156667N33-17.120580N
Longitude: 117-27.535645W117-27.241753W
Elevation: 86.3 ft.88.5 ft.
Traffic pattern: leftleft
Runway heading: 085 magnetic, 098 true265 magnetic, 278 true
Markings: basicbasic
Touchdown point: yes, no lightsyes, no lights

Airport Ownership and Management from official FAA records

Ownership: Privately-owned
Owner: US NAVY
OCEANOGRAPHIC OFC - CODE 3142
WASHINGTON, DC 20373

Additional Remarks

COMMUNICATIONS: MCB RANGE CON - 123.2 301.9 REMARKS (CALL LONG RIFLE).
RSTD - CTC MCB CAMP PENDLETON RANGE CONTROL FOR SKED DSN 365-4219/3510, C760-725-4219/3510.

Instrument Procedures

There are no published instrument procedures at KNXF.

Some nearby airports with instrument procedures:

KNFG - Camp Pendleton MCAS (Munn Field) Airport (5 nm E)
KOKB - Bob Maxwell Memorial Airfield (7 nm SE)
L18 - Fallbrook Community Airpark (11 nm E)
KCRQ - Mc Clellan-Palomar Airport (13 nm SE)
F70 - French Valley Airport (24 nm NE)
 
Loc | Ops | Rwys | IFR | FBO | Links
Com | Nav | Svcs | Stats | Notes

San Bernardino International Airport Authority
 
Aerial photo
No photo
 
Sectional chart

 
Airport distance calculator
Flying to MCOLF Camp Pendleton (Red Beach) Airport? Find the distance to fly.

From to KNXF

Sunrise and sunset
Times for 22-Jun-2018
 Local
(UTC-7)
 Zulu
(UTC)
Morning civil twilight05:1312:13
Sunrise05:4212:42
Sunset20:0103:01
Evening civil twilight20:3003:30

Current date and time
Zulu (UTC)  22-Jun-2018 23:25:27
Local (UTC-7)  22-Jun-2018 16:25:27
 
METAR
KNXF 222256Z AUTO 27010KT 10SM OVC009 21/16 A2982 RMK AO2 SLP183 T02110161
KNFG 
6nm E 
222255Z 21009KT 7SM FEW015 24/17 A2980 RMK AO2 SLP091 T02390167
KOKB 
7nm SE 
222252Z AUTO 26010KT 10SM CLR 23/16 A2981 RMK AO2 SLP095 T02280161
KL18 
11nm E 
222255Z AUTO 20007KT 10SM CLR 27/16 A2982 RMK AO2
KCRQ 
13nm SE 
222253Z 25008KT 10SM CLR 20/16 A2982 RMK AO2 SLP095 T02000161
TAF
KNFG 
6nm E 
2221/2321 22009KT 9999 FEW010 QNH2977INS TEMPO 2221/2301 24012G20KT BECMG 2301/2303 VRB05KT 9999 BKN010 QNH2978INS FM231600 VRB05KT 9999 SCT012 QNH2979INS T25/2222Z T16/2312Z
KCRQ 
13nm SE 
221739Z 2218/2318 VRB05KT P6SM BKN015 FM221900 25009KT P6SM SCT018 FM230100 25007KT P6SM BKN010 FM230300 VRB04KT 4SM BR OVC009
NOTAMs
Click for the latest NOTAMs
NOTAMs are issued by the DoD/FAA and will open in a separate window not controlled by AirNav.

 

 
 

Would you like to see your business listed on this page?

 If your business provides an interesting product or service to pilots, flight crews, aircraft, or users of the MCOLF Camp Pendleton (Red Beach) Airport, you should consider listing it here.  To start the listing process, click on the button below
 
Add a business
 

Other Pages about MCOLF Camp Pendleton (Red Beach) Airport

Update a link
 
Copyright © AirNav, LLC. All rights reserved. Privacy Policy  Contact